Time,TemperatureF,DewpointF,PressureIn,WindDirection,WindDirectionDegrees,WindSpeedMPH,WindSpeedGustMPH,Humidity,HourlyPrecipIn,Conditions,Clouds,dailyrainin,SoftwareType,DateUTC
2013-07-09 00:11:00,75.6,73.7,29.95,ESE,112,0.0,-999.0,94,-99.99,,,0.00,Acu-Link.com,2013-07-09 05:11:00,
2013-07-09 00:26:00,75.2,73.3,29.94,East,90,0.0,-999.0,94,-99.99,,,0.00,Acu-Link.com,2013-07-09 05:26:00,
2013-07-09 00:41:00,74.8,72.3,29.94,East,90,0.0,-999.0,92,-99.99,,,0.00,Acu-Link.com,2013-07-09 05:41:00,
2013-07-09 00:56:00,74.5,72.0,29.94,East,90,0.0,-999.0,92,-99.99,,,0.00,Acu-Link.com,2013-07-09 05:56:00,
2013-07-09 01:11:00,73.9,71.4,29.94,East,90,0.0,-999.0,92,-99.99,,,0.00,Acu-Link.com,2013-07-09 06:11:00,
2013-07-09 01:26:00,74.5,71.0,29.93,East,90,0.0,-999.0,89,-99.99,,,0.00,Acu-Link.com,2013-07-09 06:26:00,
2013-07-09 01:41:00,74.8,71.3,29.93,SSW,202,0.0,-999.0,89,-99.99,,,0.00,Acu-Link.com,2013-07-09 06:41:00,
2013-07-09 01:57:00,75.2,71.7,29.94,South,180,0.0,-999.0,89,-99.99,,,0.00,Acu-Link.com,2013-07-09 06:57:00,
2013-07-09 02:12:00,75.0,71.5,29.93,South,180,0.0,-999.0,89,-99.99,,,0.00,Acu-Link.com,2013-07-09 07:12:00,
2013-07-09 02:27:00,74.8,71.7,29.93,South,180,0.0,-999.0,90,-99.99,,,0.00,Acu-Link.com,2013-07-09 07:27:00,
2013-07-09 02:42:00,74.3,70.8,29.93,East,90,0.0,-999.0,89,-99.99,,,0.00,Acu-Link.com,2013-07-09 07:42:00,
2013-07-09 02:57:00,73.9,70.1,29.93,WNW,292,0.0,-999.0,88,-99.99,,,0.00,Acu-Link.com,2013-07-09 07:57:00,
2013-07-09 03:13:00,73.8,69.7,29.92,WNW,292,0.0,-999.0,87,-99.99,,,0.00,Acu-Link.com,2013-07-09 08:13:00,
2013-07-09 03:28:00,74.3,69.8,29.93,East,90,0.0,-999.0,86,-99.99,,,0.00,Acu-Link.com,2013-07-09 08:28:00,
2013-07-09 03:43:00,74.7,70.9,29.92,SW,225,0.0,-999.0,88,-99.99,,,0.00,Acu-Link.com,2013-07-09 08:43:00,
2013-07-09 03:58:00,74.8,71.3,29.92,ESE,112,0.0,-999.0,89,-99.99,,,0.00,Acu-Link.com,2013-07-09 08:58:00,
2013-07-09 04:13:00,74.5,71.4,29.94,SW,225,0.0,-999.0,90,-99.99,,,0.00,Acu-Link.com,2013-07-09 09:13:00,
2013-07-09 04:28:00,73.9,70.4,29.93,SW,225,0.0,-999.0,89,-99.99,,,0.00,Acu-Link.com,2013-07-09 09:28:00,
2013-07-09 04:44:00,73.6,70.1,29.93,SW,225,0.0,-999.0,89,-99.99,,,0.00,Acu-Link.com,2013-07-09 09:44:00,
2013-07-09 04:59:00,73.4,69.3,29.93,SW,225,0.0,-999.0,87,-99.99,,,0.00,Acu-Link.com,2013-07-09 09:59:00,
2013-07-09 05:14:00,73.2,68.8,29.94,SW,225,0.0,-999.0,86,-99.99,,,0.00,Acu-Link.com,2013-07-09 10:14:00,
2013-07-09 05:29:00,72.9,68.5,29.95,SW,225,0.0,-999.0,86,-99.99,,,0.00,Acu-Link.com,2013-07-09 10:29:00,
2013-07-09 05:44:00,72.5,68.1,29.96,SW,225,0.0,-999.0,86,-99.99,,,0.00,Acu-Link.com,2013-07-09 10:44:00,
2013-07-09 06:00:00,72.7,68.3,29.95,SW,225,0.0,-999.0,86,-99.99,,,0.00,Acu-Link.com,2013-07-09 11:00:00,
2013-07-09 06:15:00,73.4,68.3,29.95,SW,225,0.0,-999.0,84,-99.99,,,0.00,Acu-Link.com,2013-07-09 11:15:00,
2013-07-09 06:30:00,73.8,68.7,29.95,SW,225,0.0,-999.0,84,-99.99,,,0.00,Acu-Link.com,2013-07-09 11:30:00,
2013-07-09 06:45:00,75.2,70.7,29.96,SE,135,0.0,-999.0,86,-99.99,,,0.00,Acu-Link.com,2013-07-09 11:45:00,
2013-07-09 07:00:00,76.1,72.9,29.95,ESE,112,0.0,-999.0,90,-99.99,,,0.00,Acu-Link.com,2013-07-09 12:00:00,
2013-07-09 07:15:00,77.2,74.0,29.95,SSW,202,0.0,-999.0,90,-99.99,,,0.00,Acu-Link.com,2013-07-09 12:15:00,
2013-07-09 07:30:00,78.8,74.9,29.95,South,180,0.0,-999.0,88,-99.99,,,0.00,Acu-Link.com,2013-07-09 12:30:00,
2013-07-09 07:46:00,79.0,75.1,29.96,SSE,157,0.0,-999.0,88,-99.99,,,0.00,Acu-Link.com,2013-07-09 12:46:00,
2013-07-09 08:01:00,79.9,75.0,29.95,ESE,112,2.7,-999.0,85,-99.99,,,0.00,Acu-Link.com,2013-07-09 13:01:00,
2013-07-09 08:16:00,84.0,76.4,29.97,ESE,112,1.7,-999.0,78,-99.99,,,0.00,Acu-Link.com,2013-07-09 13:16:00,
2013-07-09 08:31:00,86.9,76.3,29.96,South,180,2.7,-999.0,71,-99.99,,,0.00,Acu-Link.com,2013-07-09 13:31:00,
2013-07-09 08:46:00,89.1,76.7,29.97,West,270,2.2,-999.0,67,-99.99,,,0.00,Acu-Link.com,2013-07-09 13:46:00,
2013-07-09 09:01:00,89.2,76.8,29.97,ESE,112,2.2,-999.0,67,-99.99,,,0.00,Acu-Link.com,2013-07-09 14:01:00,
2013-07-09 09:16:00,92.3,75.9,29.97,ESE,112,3.2,-999.0,59,-99.99,,,0.00,Acu-Link.com,2013-07-09 14:16:00,
2013-07-09 09:31:00,88.7,74.9,29.97,SSE,157,4.2,-999.0,64,-99.99,,,0.00,Acu-Link.com,2013-07-09 14:31:00,
2013-07-09 09:46:00,86.9,75.5,29.96,SE,135,3.2,-999.0,69,-99.99,,,0.00,Acu-Link.com,2013-07-09 14:46:00,
2013-07-09 10:02:00,89.6,76.7,29.97,SSE,157,3.2,-999.0,66,-99.99,,,0.00,Acu-Link.com,2013-07-09 15:02:00,
2013-07-09 10:17:00,88.7,74.5,29.96,SSE,157,2.7,-999.0,63,-99.99,,,0.00,Acu-Link.com,2013-07-09 15:17:00,
2013-07-09 10:32:00,89.8,74.5,29.96,SSE,157,4.7,-999.0,61,-99.99,,,0.00,Acu-Link.com,2013-07-09 15:32:00,
2013-07-09 10:47:00,91.0,75.6,29.97,South,180,2.2,-999.0,61,-99.99,,,0.00,Acu-Link.com,2013-07-09 15:47:00,
2013-07-09 11:02:00,91.2,74.8,29.96,East,90,2.7,-999.0,59,-99.99,,,0.00,Acu-Link.com,2013-07-09 16:02:00,
2013-07-09 11:17:00,91.6,75.7,29.96,SE,135,0.0,-999.0,60,-99.99,,,0.00,Acu-Link.com,2013-07-09 16:17:00,
2013-07-09 11:32:00,93.6,76.0,29.96,South,180,2.7,-999.0,57,-99.99,,,0.00,Acu-Link.com,2013-07-09 16:32:00,
2013-07-09 11:47:00,92.7,73.6,29.95,SSW,202,4.2,-999.0,54,-99.99,,,0.00,Acu-Link.com,2013-07-09 16:47:00,
2013-07-09 12:02:00,93.4,74.2,29.94,SSE,157,1.7,-999.0,54,-99.99,,,0.00,Acu-Link.com,2013-07-09 17:02:00,
2013-07-09 12:18:00,93.9,74.7,29.95,South,180,2.2,-999.0,54,-99.99,,,0.00,Acu-Link.com,2013-07-09 17:18:00,
2013-07-09 12:33:00,93.7,73.9,29.94,WNW,292,2.7,-999.0,53,-99.99,,,0.00,Acu-Link.com,2013-07-09 17:33:00,
2013-07-09 12:48:00,94.5,75.2,29.94,South,180,3.2,-999.0,54,-99.99,,,0.00,Acu-Link.com,2013-07-09 17:48:00,
2013-07-09 13:03:00,95.0,74.0,29.93,SSE,157,4.7,-999.0,51,-99.99,,,0.00,Acu-Link.com,2013-07-09 18:03:00,
2013-07-09 13:18:00,96.1,75.0,29.93,West,270,0.0,-999.0,51,-99.99,,,0.00,Acu-Link.com,2013-07-09 18:18:00,
2013-07-09 13:33:00,93.0,74.4,29.93,SE,135,2.7,-999.0,55,-99.99,,,0.00,Acu-Link.com,2013-07-09 18:33:00,
2013-07-09 13:48:00,94.6,73.6,29.92,ESE,112,2.7,-999.0,51,-99.99,,,0.00,Acu-Link.com,2013-07-09 18:48:00,
2013-07-09 14:03:00,95.5,74.4,29.92,West,270,1.7,-999.0,51,-99.99,,,0.00,Acu-Link.com,2013-07-09 19:03:00,
2013-07-09 14:18:00,95.0,74.6,29.91,ESE,112,3.7,-999.0,52,-99.99,,,0.00,Acu-Link.com,2013-07-09 19:18:00,
2013-07-09 14:34:00,95.9,74.8,29.91,South,180,1.7,-999.0,51,-99.99,,,0.00,Acu-Link.com,2013-07-09 19:34:00,
2013-07-09 14:49:00,96.3,74.6,29.90,NNW,337,4.2,-999.0,50,-99.99,,,0.00,Acu-Link.com,2013-07-09 19:49:00,
2013-07-09 15:04:00,96.1,74.4,29.90,SE,135,2.7,-999.0,50,-99.99,,,0.00,Acu-Link.com,2013-07-09 20:04:00,
2013-07-09 15:19:00,95.7,73.4,29.90,SSE,157,3.2,-999.0,49,-99.99,,,0.00,Acu-Link.com,2013-07-09 20:19:00,
2013-07-09 15:34:00,95.4,71.9,29.90,ENE,67,4.7,-999.0,47,-99.99,,,0.00,Acu-Link.com,2013-07-09 20:34:00,
2013-07-09 15:49:00,94.6,71.8,29.89,NW,315,3.7,-999.0,48,-99.99,,,0.00,Acu-Link.com,2013-07-09 20:49:00,
2013-07-09 16:04:00,95.2,71.7,29.87,West,270,3.7,-999.0,47,-99.99,,,0.00,Acu-Link.com,2013-07-09 21:04:00,
2013-07-09 16:19:00,95.0,70.9,29.89,ESE,112,3.2,-999.0,46,-99.99,,,0.00,Acu-Link.com,2013-07-09 21:19:00,
2013-07-09 16:34:00,94.6,71.8,29.88,East,90,3.7,-999.0,48,-99.99,,,0.00,Acu-Link.com,2013-07-09 21:34:00,
2013-07-09 16:50:00,95.2,70.5,29.86,ESE,112,3.7,-999.0,45,-99.99,,,0.00,Acu-Link.com,2013-07-09 21:50:00,
2013-07-09 17:05:00,94.8,71.4,29.85,ESE,112,2.7,-999.0,47,-99.99,,,0.00,Acu-Link.com,2013-07-09 22:05:00,
2013-07-09 17:20:00,95.0,73.4,29.85,SSE,157,2.2,-999.0,50,-99.99,,,0.00,Acu-Link.com,2013-07-09 22:20:00,
2013-07-09 17:35:00,95.4,73.2,29.85,SSE,157,2.2,-999.0,49,-99.99,,,0.00,Acu-Link.com,2013-07-09 22:35:00,
2013-07-09 17:50:00,96.4,71.5,29.85,ESE,112,4.2,-999.0,45,-99.99,,,0.00,Acu-Link.com,2013-07-09 22:50:00,
2013-07-09 18:05:00,97.2,72.9,29.83,NNE,22,1.1,-999.0,46,-99.99,,,0.00,Acu-Link.com,2013-07-09 23:05:00,
2013-07-09 18:21:00,95.0,72.2,29.83,ESE,112,2.7,-999.0,48,-99.99,,,0.00,Acu-Link.com,2013-07-09 23:21:00,
2013-07-09 18:36:00,93.6,71.5,29.84,East,90,3.7,-999.0,49,-99.99,,,0.00,Acu-Link.com,2013-07-09 23:36:00,
2013-07-09 18:51:00,92.3,72.1,29.82,SE,135,3.2,-999.0,52,-99.99,,,0.00,Acu-Link.com,2013-07-09 23:51:00,
2013-07-09 19:06:00,91.8,72.2,29.83,NE,45,2.7,-999.0,53,-99.99,,,0.00,Acu-Link.com,2013-07-10 00:06:00,
2013-07-09 19:21:00,90.3,70.2,29.82,SSE,157,2.7,-999.0,52,-99.99,,,0.00,Acu-Link.com,2013-07-10 00:21:00,
2013-07-09 19:36:00,89.2,70.3,29.83,ESE,112,3.7,-999.0,54,-99.99,,,0.00,Acu-Link.com,2013-07-10 00:36:00,
2013-07-09 19:51:00,88.5,70.8,29.84,SSE,157,3.2,-999.0,56,-99.99,,,0.00,Acu-Link.com,2013-07-10 00:51:00,
2013-07-09 20:07:00,87.8,72.2,29.83,ESE,112,0.0,-999.0,60,-99.99,,,0.00,Acu-Link.com,2013-07-10 01:07:00,
2013-07-09 20:22:00,86.2,73.5,29.85,ESE,112,1.1,-999.0,66,-99.99,,,0.00,Acu-Link.com,2013-07-10 01:22:00,
2013-07-09 20:37:00,85.3,73.5,29.84,East,90,0.0,-999.0,68,-99.99,,,0.00,Acu-Link.com,2013-07-10 01:37:00,
2013-07-09 20:52:00,84.2,73.8,29.84,East,90,0.0,-999.0,71,-99.99,,,0.00,Acu-Link.com,2013-07-10 01:52:00,
2013-07-09 21:07:00,83.8,74.6,29.85,ESE,112,0.0,-999.0,74,-99.99,,,0.00,Acu-Link.com,2013-07-10 02:07:00,
2013-07-09 21:22:00,83.3,74.9,29.87,SE,135,0.0,-999.0,76,-99.99,,,0.00,Acu-Link.com,2013-07-10 02:22:00,
2013-07-09 21:38:00,83.1,74.7,29.88,ESE,112,0.0,-999.0,76,-99.99,,,0.00,Acu-Link.com,2013-07-10 02:38:00,
2013-07-09 21:53:00,82.6,74.6,29.88,South,180,0.0,-999.0,77,-99.99,,,0.00,Acu-Link.com,2013-07-10 02:53:00,
2013-07-09 22:08:00,82.4,74.4,29.87,SE,135,1.1,-999.0,77,-99.99,,,0.00,Acu-Link.com,2013-07-10 03:08:00,
2013-07-09 22:23:00,82.2,74.6,29.88,NE,45,0.0,-999.0,78,-99.99,,,0.00,Acu-Link.com,2013-07-10 03:23:00,
2013-07-09 22:38:00,82.2,75.0,29.87,ESE,112,1.1,-999.0,79,-99.99,,,0.00,Acu-Link.com,2013-07-10 03:38:00,
2013-07-09 22:53:00,81.7,74.9,29.88,SW,225,0.0,-999.0,80,-99.99,,,0.00,Acu-Link.com,2013-07-10 03:53:00,
2013-07-09 23:08:00,81.7,74.9,29.87,ESE,112,0.0,-999.0,80,-99.99,,,0.00,Acu-Link.com,2013-07-10 04:08:00,
2013-07-09 23:23:00,81.5,75.1,29.88,SSE,157,2.2,-999.0,81,-99.99,,,0.00,Acu-Link.com,2013-07-10 04:23:00,
2013-07-09 23:38:00,81.1,75.1,29.88,South,180,0.0,-999.0,82,-99.99,,,0.00,Acu-Link.com,2013-07-10 04:38:00,
2013-07-09 23:53:00,80.6,74.9,29.88,SE,135,0.0,-999.0,83,-99.99,,,0.00,Acu-Link.com,2013-07-10 04:53:00,